| time (UTC) | temp F | wind direction | speed MPH | gust MPH | rain 1hr in | rain 24hr in | rain mn in | humidity % | barometer mb |
| 20260509135137 | 61 | 221 | 5.0 | 5.0 | 0.00 | 0.00 | 0.00 | 73 | 1003.3 |
| 20260509134638 | 61 | 205 | 5.0 | 5.0 | 0.00 | 0.00 | 0.00 | 74 | 1003.4 |
| 20260509134136 | 60 | 231 | 6.0 | 5.0 | 0.00 | 0.00 | 0.00 | 74 | 1003.3 |
| 20260509133637 | 60 | 210 | 4.0 | 4.0 | 0.00 | 0.00 | 0.00 | 75 | 1003.4 |
| 20260509133136 | 60 | 180 | 5.0 | 4.0 | 0.00 | 0.00 | 0.00 | 76 | 1003.8 |
| 20260509132636 | 59 | 233 | 2.0 | 4.0 | 0.00 | 0.00 | 0.00 | 77 | 1003.8 |
| 20260509132136 | 59 | 236 | 5.0 | 4.0 | 0.00 | 0.00 | 0.00 | 78 | 1003.7 |
| 20260509131636 | 59 | 224 | 2.0 | 4.0 | 0.00 | 0.00 | 0.00 | 79 | 1003.7 |
| 20260509131136 | 58 | 245 | 2.0 | 4.0 | 0.00 | 0.00 | 0.00 | 80 | 1003.8 |
| 20260509130636 | 58 | 229 | 3.0 | 4.0 | 0.00 | 0.00 | 0.00 | 81 | 1003.7 |
| 20260509130137 | 57 | 238 | 3.0 | 5.0 | 0.00 | 0.00 | 0.00 | 81 | 1003.6 |
| 20260509125636 | 57 | 210 | 4.0 | 4.0 | 0.00 | 0.00 | 0.00 | 83 | 1003.6 |
| 20260509125137 | 57 | 234 | 5.0 | 4.0 | 0.00 | 0.00 | 0.00 | 83 | 1003.6 |
| 20260509124636 | 56 | 211 | 6.0 | 4.0 | 0.00 | 0.00 | 0.00 | 84 | 1003.7 |
| 20260509124137 | 56 | 235 | 10.0 | 4.0 | 0.00 | 0.00 | 0.00 | 85 | 1003.8 |
| 20260509123636 | 56 | 173 | 2.0 | 4.0 | 0.00 | 0.00 | 0.00 | 85 | 1003.7 |
| 20260509123137 | 55 | 216 | 6.0 | 4.0 | 0.00 | 0.00 | 0.00 | 86 | 1003.7 |
| 20260509122636 | 55 | 179 | 3.0 | 4.0 | 0.00 | 0.00 | 0.00 | 86 | 1003.6 |
| 20260509122136 | 55 | 223 | 3.0 | 4.0 | 0.00 | 0.00 | 0.00 | 87 | 1003.7 |
| 20260509121636 | 55 | 209 | 7.0 | 4.0 | 0.00 | 0.00 | 0.00 | 87 | 1003.6 |
| 20260509121136 | 54 | 217 | 4.0 | 3.0 | 0.00 | 0.00 | 0.00 | 87 | 1003.7 |
| 20260509120636 | 54 | 199 | 3.0 | 3.0 | 0.00 | 0.00 | 0.00 | 87 | 1003.7 |
| 20260509120137 | 54 | 212 | 2.0 | 4.0 | 0.00 | 0.00 | 0.00 | 87 | 1003.7 |
| 20260509115636 | 54 | 203 | 3.0 | 4.0 | 0.00 | 0.00 | 0.00 | 87 | 1003.6 |
| 20260509115136 | 54 | 220 | 4.0 | 4.0 | 0.00 | 0.00 | 0.00 | 88 | 1003.6 |
| 20260509114636 | 54 | 175 | 4.0 | 3.0 | 0.00 | 0.00 | 0.00 | 87 | 1003.5 |
| 20260509114136 | 54 | 212 | 2.0 | 3.0 | 0.00 | 0.00 | 0.00 | 87 | 1003.4 |
| 20260509113636 | 54 | 191 | 1.0 | 2.0 | 0.00 | 0.00 | 0.00 | 87 | 1003.4 |
| 20260509113137 | 54 | 200 | 4.0 | 2.0 | 0.00 | 0.00 | 0.00 | 87 | 1003.4 |
| 20260509112636 | 54 | 0 | 0.0 | 2.0 | 0.00 | 0.00 | 0.00 | 87 | 1003.5 |
| 20260509112137 | 54 | 231 | 2.0 | 2.0 | 0.00 | 0.00 | 0.00 | 87 | 1003.4 |
| 20260509111636 | 54 | 210 | 2.0 | 3.0 | 0.00 | 0.00 | 0.00 | 87 | 1003.3 |
| 20260509111136 | 54 | 219 | 4.0 | 4.0 | 0.00 | 0.00 | 0.00 | 87 | 1003.0 |
| 20260509110637 | 54 | 218 | 6.0 | 4.0 | 0.00 | 0.00 | 0.00 | 87 | 1003.0 |
| 20260509110136 | 54 | 221 | 1.0 | 4.0 | 0.00 | 0.00 | 0.00 | 87 | 1002.8 |
| 20260509105636 | 54 | 233 | 3.0 | 4.0 | 0.00 | 0.00 | 0.00 | 87 | 1003.0 |
| 20260509105137 | 54 | 210 | 3.0 | 4.0 | 0.00 | 0.00 | 0.00 | 87 | 1003.0 |
| 20260509104637 | 54 | 216 | 2.0 | 4.0 | 0.00 | 0.00 | 0.00 | 87 | 1003.0 |
| 20260509104136 | 54 | 195 | 4.0 | 4.0 | 0.00 | 0.00 | 0.00 | 87 | 1002.9 |
| 20260509103636 | 54 | 179 | 5.0 | 4.0 | 0.00 | 0.00 | 0.00 | 87 | 1002.9 |
| 20260509103136 | 54 | 160 | 6.0 | 4.0 | 0.00 | 0.00 | 0.00 | 87 | 1003.0 |
| 20260509102636 | 53 | 221 | 3.0 | 3.0 | 0.00 | 0.00 | 0.00 | 87 | 1002.9 |
| 20260509102136 | 53 | 115 | 4.0 | 3.0 | 0.00 | 0.00 | 0.00 | 87 | 1003.0 |
| 20260509101636 | 53 | 206 | 2.0 | 3.0 | 0.00 | 0.00 | 0.00 | 86 | 1003.1 |
| 20260509101136 | 53 | 219 | 4.0 | 2.0 | 0.00 | 0.00 | 0.00 | 86 | 1003.2 |
| 20260509100636 | 53 | 203 | 3.0 | 2.0 | 0.00 | 0.00 | 0.00 | 86 | 1003.2 |
| 20260509100138 | 54 | 203 | 1.0 | 2.0 | 0.00 | 0.00 | 0.00 | 86 | 1003.2 |
| 20260509095636 | 54 | 192 | 1.0 | 2.0 | 0.00 | 0.00 | 0.00 | 86 | 1003.3 |
| 20260509095137 | 54 | 175 | 2.0 | 2.0 | 0.00 | 0.00 | 0.00 | 86 | 1003.4 |
| 20260509094636 | 54 | 0 | 0.0 | 2.0 | 0.00 | 0.00 | 0.00 | 86 | 1003.5 |
| 20260509094136 | 54 | 200 | 1.0 | 3.0 | 0.00 | 0.00 | 0.00 | 86 | 1003.5 |
| 20260509093637 | 54 | 214 | 2.0 | 2.0 | 0.00 | 0.00 | 0.00 | 86 | 1003.6 |
| 20260509093136 | 54 | 198 | 3.0 | 2.0 | 0.00 | 0.00 | 0.00 | 86 | 1003.8 |
| 20260509092636 | 54 | 202 | 2.0 | 3.0 | 0.00 | 0.00 | 0.00 | 85 | 1003.6 |
| 20260509092137 | 54 | 210 | 3.0 | 3.0 | 0.00 | 0.00 | 0.00 | 85 | 1003.6 |
| 20260509091636 | 54 | 186 | 3.0 | 3.0 | 0.00 | 0.00 | 0.00 | 85 | 1003.6 |
| 20260509091136 | 54 | 174 | 4.0 | 3.0 | 0.00 | 0.00 | 0.00 | 85 | 1003.7 |
| 20260509090636 | 54 | 236 | 3.0 | 3.0 | 0.00 | 0.00 | 0.00 | 85 | 1003.8 |
| 20260509090136 | 54 | 240 | 5.0 | 3.0 | 0.00 | 0.00 | 0.00 | 85 | 1003.8 |
| 20260509085636 | 54 | 205 | 4.0 | 3.0 | 0.00 | 0.00 | 0.00 | 85 | 1003.8 |
| 20260509085136 | 54 | 230 | 4.0 | 4.0 | 0.00 | 0.00 | 0.00 | 85 | 1003.9 |
| 20260509084637 | 54 | 226 | 6.0 | 4.0 | 0.00 | 0.00 | 0.00 | 84 | 1003.8 |
| 20260509084137 | 54 | 184 | 2.0 | 3.0 | 0.00 | 0.00 | 0.00 | 84 | 1003.9 |
| 20260509083638 | 54 | 222 | 3.0 | 3.0 | 0.00 | 0.00 | 0.00 | 84 | 1004.0 |
| 20260509083138 | 54 | 222 | 3.0 | 3.0 | 0.00 | 0.00 | 0.00 | 84 | 1003.9 |
| 20260509082637 | 54 | 188 | 2.0 | 3.0 | 0.00 | 0.00 | 0.00 | 84 | 1003.9 |
| 20260509082137 | 54 | 222 | 2.0 | 3.0 | 0.00 | 0.00 | 0.00 | 84 | 1003.8 |
| 20260509081637 | 54 | 174 | 4.0 | 3.0 | 0.00 | 0.00 | 0.00 | 83 | 1003.8 |
| 20260509081137 | 54 | 188 | 2.0 | 3.0 | 0.00 | 0.00 | 0.00 | 83 | 1003.7 |
| 20260509080637 | 54 | 217 | 1.0 | 3.0 | 0.00 | 0.00 | 0.00 | 83 | 1003.8 |
| 20260509080137 | 54 | 201 | 5.0 | 3.0 | 0.00 | 0.00 | 0.00 | 83 | 1003.8 |
| 20260509075637 | 54 | 220 | 2.0 | 3.0 | 0.00 | 0.00 | 0.00 | 83 | 1003.8 |
| 20260509075137 | 55 | 222 | 4.0 | 4.0 | 0.00 | 0.00 | 0.00 | 83 | 1003.8 |
| 20260509074637 | 55 | 195 | 2.0 | 3.0 | 0.00 | 0.00 | 0.00 | 82 | 1003.9 |
| 20260509074137 | 55 | 186 | 3.0 | 3.0 | 0.00 | 0.00 | 0.00 | 82 | 1004.2 |
| 20260509073637 | 55 | 229 | 2.0 | 3.0 | 0.00 | 0.00 | 0.00 | 82 | 1004.2 |
| 20260509073137 | 55 | 212 | 7.0 | 3.0 | 0.00 | 0.00 | 0.00 | 82 | 1004.2 |
| 20260509072636 | 55 | 233 | 6.0 | 3.0 | 0.00 | 0.00 | 0.00 | 82 | 1004.2 |
| 20260509072137 | 55 | 221 | 5.0 | 3.0 | 0.00 | 0.00 | 0.00 | 82 | 1004.3 |
| 20260509071637 | 55 | 222 | 4.0 | 3.0 | 0.00 | 0.00 | 0.00 | 82 | 1004.4 |
| 20260509071137 | 55 | 208 | 4.0 | 3.0 | 0.00 | 0.00 | 0.00 | 81 | 1004.6 |
| 20260509070636 | 55 | 236 | 5.0 | 3.0 | 0.00 | 0.00 | 0.00 | 81 | 1004.7 |
| 20260509070138 | 55 | 185 | 4.0 | 3.0 | 0.00 | 0.00 | 0.00 | 81 | 1004.7 |
| 20260509065637 | 55 | 208 | 4.0 | 3.0 | 0.00 | 0.00 | 0.00 | 81 | 1004.7 |
| 20260509065138 | 55 | 222 | 3.0 | 3.0 | 0.00 | 0.00 | 0.00 | 81 | 1004.8 |
| 20260509064637 | 55 | 210 | 6.0 | 3.0 | 0.00 | 0.00 | 0.00 | 81 | 1004.9 |
| 20260509064138 | 56 | 229 | 5.0 | 3.0 | 0.00 | 0.00 | 0.00 | 81 | 1004.8 |
| 20260509063636 | 56 | 207 | 5.0 | 3.0 | 0.00 | 0.00 | 0.00 | 81 | 1004.9 |
| 20260509063137 | 56 | 213 | 6.0 | 4.0 | 0.00 | 0.00 | 0.00 | 81 | 1004.9 |
| 20260509062637 | 56 | 221 | 1.0 | 4.0 | 0.00 | 0.00 | 0.00 | 81 | 1004.9 |
| 20260509062137 | 56 | 207 | 6.0 | 3.0 | 0.00 | 0.00 | 0.00 | 81 | 1005.0 |
| 20260509061636 | 56 | 216 | 3.0 | 3.0 | 0.00 | 0.00 | 0.00 | 81 | 1005.0 |
| 20260509061137 | 56 | 204 | 5.0 | 3.0 | 0.00 | 0.00 | 0.00 | 81 | 1005.1 |
| 20260509060637 | 56 | 234 | 5.0 | 3.0 | 0.00 | 0.00 | 0.00 | 81 | 1005.1 |
| 20260509060137 | 56 | 229 | 4.0 | 3.0 | 0.00 | 0.00 | 0.00 | 80 | 1005.2 |
| 20260509055637 | 56 | 230 | 2.0 | 3.0 | 0.00 | 0.00 | 0.00 | 80 | 1005.2 |
| 20260509055137 | 57 | 206 | 4.0 | 3.0 | 0.00 | 0.00 | 0.00 | 80 | 1005.3 |
| 20260509054636 | 57 | 195 | 3.0 | 3.0 | 0.00 | 0.00 | 0.00 | 80 | 1005.2 |
| 20260509054137 | 57 | 213 | 2.0 | 3.0 | 0.00 | 0.00 | 0.00 | 79 | 1005.3 |
| 20260509053637 | 57 | 185 | 2.0 | 3.0 | 0.00 | 0.00 | 0.00 | 79 | 1005.3 |
| 20260509053137 | 57 | 221 | 1.0 | 4.0 | 0.00 | 0.00 | 0.00 | 79 | 1005.2 |
| 20260509052637 | 57 | 213 | 5.0 | 4.0 | 0.00 | 0.00 | 0.00 | 79 | 1005.3 |
| 20260509052138 | 57 | 151 | 1.0 | 4.0 | 0.00 | 0.00 | 0.00 | 78 | 1005.2 |
| 20260509051637 | 57 | 233 | 4.0 | 4.0 | 0.00 | 0.00 | 0.00 | 78 | 1005.1 |
| 20260509051137 | 57 | 210 | 4.0 | 4.0 | 0.00 | 0.00 | 0.00 | 77 | 1005.2 |
| 20260509050636 | 57 | 175 | 3.0 | 3.0 | 0.00 | 0.00 | 0.00 | 77 | 1005.3 |
| 20260509050137 | 57 | 207 | 1.0 | 3.0 | 0.00 | 0.00 | 0.00 | 77 | 1005.3 |
| 20260509045636 | 57 | 210 | 4.0 | 3.0 | 0.00 | 0.00 | 0.00 | 76 | 1005.2 |
| 20260509045137 | 58 | 215 | 4.0 | 3.0 | 0.00 | 0.00 | 0.00 | 75 | 1005.2 |
| 20260509044636 | 58 | 208 | 2.0 | 3.0 | 0.00 | 0.00 | 0.00 | 75 | 1005.3 |
| 20260509044137 | 58 | 221 | 1.0 | 3.0 | 0.00 | 0.00 | 0.00 | 74 | 1005.4 |
| 20260509043637 | 58 | 187 | 2.0 | 4.0 | 0.00 | 0.00 | 0.00 | 74 | 1005.4 |
| 20260509043137 | 58 | 201 | 5.0 | 4.0 | 0.00 | 0.00 | 0.00 | 74 | 1005.4 |
| 20260509042636 | 58 | 229 | 4.0 | 4.0 | 0.00 | 0.00 | 0.00 | 73 | 1005.4 |
| 20260509042137 | 58 | 180 | 5.0 | 4.0 | 0.00 | 0.00 | 0.00 | 73 | 1005.2 |
| 20260509041637 | 58 | 200 | 6.0 | 4.0 | 0.00 | 0.00 | 0.00 | 73 | 1005.4 |
| 20260509041137 | 58 | 184 | 4.0 | 4.0 | 0.00 | 0.00 | 0.00 | 73 | 1005.3 |
| 20260509040637 | 58 | 205 | 3.0 | 4.0 | 0.00 | 0.00 | 0.00 | 73 | 1005.4 |
| 20260509040137 | 58 | 182 | 9.0 | 4.0 | 0.00 | 0.00 | 0.00 | 73 | 1005.3 |
| 20260509035637 | 58 | 187 | 1.0 | 3.0 | 0.00 | 0.00 | 0.00 | 73 | 1005.5 |
| 20260509035137 | 57 | 213 | 1.0 | 3.0 | 0.00 | 0.00 | 0.00 | 72 | 1005.5 |
| 20260509034636 | 57 | 219 | 3.0 | 3.0 | 0.00 | 0.00 | 0.00 | 72 | 1005.6 |
| 20260509034137 | 57 | 186 | 4.0 | 2.0 | 0.00 | 0.00 | 0.00 | 72 | 1005.5 |
| 20260509033636 | 57 | 211 | 2.0 | 2.0 | 0.00 | 0.00 | 0.00 | 72 | 1005.5 |
| 20260509033137 | 57 | 219 | 4.0 | 2.0 | 0.00 | 0.00 | 0.00 | 72 | 1005.5 |
| 20260509032637 | 57 | 197 | 2.0 | 2.0 | 0.00 | 0.00 | 0.00 | 71 | 1005.6 |
| 20260509032137 | 56 | 196 | 2.0 | 2.0 | 0.00 | 0.00 | 0.00 | 71 | 1005.4 |
| 20260509031636 | 56 | 205 | 2.0 | 2.0 | 0.00 | 0.00 | 0.00 | 71 | 1005.5 |
| 20260509031137 | 56 | 217 | 3.0 | 3.0 | 0.00 | 0.00 | 0.00 | 71 | 1005.5 |
| 20260509030636 | 56 | 196 | 4.0 | 3.0 | 0.00 | 0.00 | 0.00 | 70 | 1005.5 |
| 20260509030137 | 56 | 150 | 3.0 | 2.0 | 0.00 | 0.00 | 0.00 | 70 | 1005.6 |
| 20260509025637 | 56 | 186 | 2.0 | 2.0 | 0.00 | 0.00 | 0.00 | 70 | 1005.5 |
| 20260509025137 | 56 | 198 | 2.0 | 1.0 | 0.00 | 0.00 | 0.00 | 69 | 1005.5 |
| 20260509024636 | 56 | 0 | 0.0 | 0.0 | 0.00 | 0.00 | 0.00 | 68 | 1005.7 |
| 20260509024137 | 56 | 0 | 0.0 | 0.0 | 0.00 | 0.00 | 0.00 | 68 | 1005.7 |
| 20260509023637 | 56 | 0 | 0.0 | 0.0 | 0.00 | 0.00 | 0.00 | 68 | 1005.8 |
| 20260509023138 | 56 | 0 | 0.0 | 0.0 | 0.00 | 0.00 | 0.00 | 67 | 1005.8 |
| 20260509022636 | 56 | 0 | 0.0 | 0.0 | 0.00 | 0.00 | 0.00 | 67 | 1005.8 |
| 20260509022137 | 56 | 0 | 0.0 | 0.0 | 0.00 | 0.00 | 0.00 | 67 | 1005.8 |
| 20260509021636 | 56 | 0 | 0.0 | 0.0 | 0.00 | 0.00 | 0.00 | 66 | 1005.9 |
| 20260509021137 | 56 | 0 | 0.0 | 0.0 | 0.00 | 0.00 | 0.00 | 66 | 1005.9 |
| 20260509020636 | 56 | 0 | 0.0 | 0.0 | 0.00 | 0.00 | 0.00 | 65 | 1005.9 |
| 20260509020137 | 56 | 0 | 0.0 | 0.0 | 0.00 | 0.00 | 0.00 | 65 | 1005.8 |
| 20260509015636 | 56 | 0 | 0.0 | 0.0 | 0.00 | 0.00 | 0.00 | 65 | 1005.8 |
| 20260509015137 | 56 | 0 | 0.0 | 0.0 | 0.00 | 0.00 | 0.00 | 64 | 1005.7 |
| 20260509014637 | 57 | 0 | 0.0 | 0.0 | 0.00 | 0.00 | 0.00 | 64 | 1005.7 |
| 20260509014137 | 57 | 0 | 0.0 | 0.0 | 0.00 | 0.00 | 0.00 | 63 | 1005.7 |
| 20260509013636 | 57 | 0 | 0.0 | 0.0 | 0.00 | 0.00 | 0.00 | 62 | 1005.8 |
| 20260509013137 | 57 | 0 | 0.0 | 0.0 | 0.00 | 0.00 | 0.00 | 61 | 1005.8 |
| 20260509012636 | 57 | 0 | 0.0 | 0.0 | 0.00 | 0.00 | 0.00 | 61 | 1005.7 |
| 20260509012137 | 57 | 0 | 0.0 | 0.0 | 0.00 | 0.00 | 0.00 | 60 | 1005.7 |
| 20260509011636 | 58 | 0 | 0.0 | 0.0 | 0.00 | 0.00 | 0.00 | 60 | 1005.6 |
| 20260509011137 | 58 | 0 | 0.0 | 0.0 | 0.00 | 0.00 | 0.00 | 60 | 1005.6 |
| 20260509010636 | 58 | 0 | 0.0 | 0.0 | 0.00 | 0.00 | 0.00 | 59 | 1005.7 |
| 20260509010137 | 58 | 79 | 1.0 | 0.0 | 0.00 | 0.00 | 0.00 | 59 | 1005.7 |
| 20260509005636 | 58 | 0 | 0.0 | 0.0 | 0.00 | 0.00 | 0.00 | 58 | 1005.7 |
| 20260509005137 | 58 | 0 | 0.0 | 1.0 | 0.00 | 0.00 | 0.00 | 58 | 1005.7 |
| 20260509004636 | 59 | 0 | 0.0 | 1.0 | 0.00 | 0.00 | 0.00 | 57 | 1005.7 |
| 20260509004137 | 59 | 0 | 0.0 | 2.0 | 0.00 | 0.00 | 0.00 | 57 | 1005.6 |
| 20260509003636 | 59 | 76 | 1.0 | 2.0 | 0.00 | 0.00 | 0.00 | 57 | 1005.7 |
| 20260509003137 | 59 | 60 | 3.0 | 2.0 | 0.00 | 0.00 | 0.00 | 57 | 1005.8 |
| 20260509002637 | 59 | 65 | 3.0 | 3.0 | 0.00 | 0.00 | 0.00 | 57 | 1005.8 |
| 20260509002139 | 59 | 51 | 2.0 | 3.0 | 0.00 | 0.00 | 0.00 | 56 | 1005.8 |
| 20260509001636 | 59 | 91 | 3.0 | 2.0 | 0.00 | 0.00 | 0.00 | 57 | 1005.9 |
| 20260509001137 | 60 | 91 | 4.0 | 2.0 | 0.00 | 0.00 | 0.00 | 57 | 1005.9 |
| 20260509000636 | 60 | 77 | 2.0 | 3.0 | 0.00 | 0.00 | 0.00 | 57 | 1006.0 |
| 20260509000138 | 60 | 64 | 4.0 | 2.0 | 0.00 | 0.00 | 0.00 | 56 | 1005.9 |
| 20260508235638 | 60 | 85 | 2.0 | 3.0 | 0.00 | 0.00 | 0.00 | 57 | 1005.9 |
| 20260508235138 | 60 | 94 | 1.0 | 4.0 | 0.00 | 0.00 | 0.00 | 56 | 1006.0 |
| 20260508234636 | 60 | 79 | 4.0 | 4.0 | 0.00 | 0.00 | 0.00 | 57 | 1006.0 |
| 20260508234136 | 61 | 76 | 4.0 | 3.0 | 0.00 | 0.00 | 0.00 | 57 | 1006.0 |
| 20260508233636 | 61 | 87 | 4.0 | 2.0 | 0.00 | 0.00 | 0.00 | 58 | 1006.1 |
| 20260508233137 | 61 | 60 | 2.0 | 2.0 | 0.00 | 0.00 | 0.00 | 58 | 1006.0 |
| 20260508232636 | 61 | 86 | 1.0 | 3.0 | 0.00 | 0.00 | 0.00 | 58 | 1006.1 |
| 20260508232137 | 61 | 44 | 5.0 | 3.0 | 0.00 | 0.00 | 0.00 | 57 | 1006.1 |
| 20260508231636 | 61 | 106 | 3.0 | 3.0 | 0.00 | 0.00 | 0.00 | 57 | 1006.2 |
| 20260508231136 | 61 | 101 | 1.0 | 4.0 | 0.00 | 0.00 | 0.00 | 56 | 1006.2 |
| 20260508230636 | 61 | 46 | 2.0 | 3.0 | 0.00 | 0.00 | 0.00 | 56 | 1006.2 |
| 20260508230137 | 62 | 60 | 6.0 | 3.0 | 0.00 | 0.00 | 0.00 | 55 | 1006.2 |
| 20260508225636 | 62 | 91 | 3.0 | 3.0 | 0.00 | 0.00 | 0.00 | 54 | 1006.4 |
| 20260508225137 | 62 | 82 | 3.0 | 4.0 | 0.00 | 0.00 | 0.00 | 54 | 1006.4 |
| 20260508224636 | 62 | 82 | 2.0 | 4.0 | 0.00 | 0.00 | 0.00 | 54 | 1006.4 |
| 20260508224137 | 63 | 43 | 3.0 | 4.0 | 0.00 | 0.00 | 0.00 | 55 | 1006.3 |
| 20260508223637 | 63 | 81 | 2.0 | 4.0 | 0.00 | 0.00 | 0.00 | 55 | 1006.4 |
| 20260508223136 | 63 | 89 | 7.0 | 5.0 | 0.00 | 0.00 | 0.00 | 55 | 1006.3 |
| 20260508222636 | 63 | 81 | 5.0 | 6.0 | 0.00 | 0.00 | 0.00 | 54 | 1006.4 |
| 20260508222137 | 63 | 75 | 6.0 | 4.0 | 0.00 | 0.00 | 0.00 | 54 | 1006.4 |
| 20260508221636 | 63 | 71 | 8.0 | 4.0 | 0.00 | 0.00 | 0.00 | 55 | 1006.4 |
| 20260508221137 | 63 | 80 | 2.0 | 4.0 | 0.00 | 0.00 | 0.00 | 55 | 1006.4 |
| 20260508220637 | 63 | 67 | 8.0 | 4.0 | 0.00 | 0.00 | 0.00 | 55 | 1006.4 |
| 20260508220137 | 62 | 87 | 3.0 | 5.0 | 0.00 | 0.00 | 0.00 | 54 | 1006.4 |
| 20260508215637 | 62 | 65 | 5.0 | 5.0 | 0.00 | 0.02 | 0.00 | 55 | 1006.5 |
| 20260508215137 | 62 | 82 | 5.0 | 5.0 | 0.00 | 0.02 | 0.00 | 56 | 1006.5 |
| 20260508214636 | 62 | 75 | 4.0 | 5.0 | 0.00 | 0.02 | 0.00 | 57 | 1006.6 |
| 20260508214136 | 62 | 70 | 7.0 | 5.0 | 0.00 | 0.02 | 0.00 | 58 | 1006.6 |
| 20260508213636 | 62 | 60 | 10.0 | 5.0 | 0.00 | 0.02 | 0.00 | 59 | 1006.6 |
| 20260508213136 | 62 | 72 | 5.0 | 6.0 | 0.00 | 0.02 | 0.00 | 59 | 1006.5 |
| 20260508212636 | 62 | 79 | 5.0 | 5.0 | 0.00 | 0.02 | 0.00 | 59 | 1006.7 |
| 20260508212136 | 62 | 93 | 3.0 | 5.0 | 0.00 | 0.02 | 0.00 | 61 | 1006.7 |
| 20260508211636 | 61 | 77 | 3.0 | 5.0 | 0.00 | 0.02 | 0.00 | 61 | 1006.7 |
| 20260508211137 | 61 | 60 | 5.0 | 4.0 | 0.00 | 0.02 | 0.00 | 61 | 1006.6 |
| 20260508210636 | 61 | 50 | 5.0 | 4.0 | 0.00 | 0.02 | 0.00 | 62 | 1006.6 |
| 20260508210137 | 61 | 79 | 8.0 | 5.0 | 0.00 | 0.02 | 0.00 | 61 | 1006.6 |
| 20260508205636 | 61 | 78 | 2.0 | 6.0 | 0.00 | 0.02 | 0.00 | 60 | 1006.6 |
| 20260508205137 | 62 | 53 | 6.0 | 5.0 | 0.00 | 0.02 | 0.00 | 59 | 1006.7 |
| 20260508204637 | 62 | 68 | 4.0 | 4.0 | 0.00 | 0.02 | 0.00 | 59 | 1006.7 |
| 20260508204136 | 61 | 88 | 2.0 | 5.0 | 0.00 | 0.02 | 0.00 | 59 | 1006.8 |
| 20260508203636 | 61 | 86 | 5.0 | 5.0 | 0.00 | 0.02 | 0.00 | 58 | 1006.9 |
| 20260508203137 | 61 | 69 | 9.0 | 4.0 | 0.00 | 0.02 | 0.00 | 57 | 1007.0 |
| 20260508202636 | 61 | 76 | 4.0 | 4.0 | 0.00 | 0.02 | 0.00 | 57 | 1007.0 |
| 20260508202136 | 60 | 15 | 2.0 | 5.0 | 0.00 | 0.02 | 0.00 | 56 | 1007.1 |
| 20260508201636 | 61 | 63 | 9.0 | 5.0 | 0.00 | 0.02 | 0.00 | 55 | 1007.1 |
| 20260508201137 | 61 | 65 | 9.0 | 4.0 | 0.00 | 0.02 | 0.00 | 53 | 1007.2 |
| 20260508200636 | 61 | 54 | 2.0 | 5.0 | 0.00 | 0.02 | 0.00 | 52 | 1007.2 |
| 20260508200137 | 61 | 56 | 6.0 | 6.0 | 0.00 | 0.02 | 0.00 | 51 | 1007.4 |
| 20260508195636 | 62 | 42 | 8.0 | 5.0 | 0.00 | 0.02 | 0.00 | 49 | 1007.5 |
| 20260508195137 | 62 | 34 | 7.0 | 5.0 | 0.00 | 0.02 | 0.00 | 48 | 1007.6 |
| 20260508194636 | 63 | 67 | 7.0 | 5.0 | 0.00 | 0.02 | 0.00 | 47 | 1007.5 |
| 20260508194136 | 64 | 81 | 5.0 | 5.0 | 0.00 | 0.02 | 0.00 | 46 | 1007.7 |
| 20260508193636 | 65 | 121 | 2.0 | 5.0 | 0.00 | 0.02 | 0.00 | 44 | 1007.6 |
| 20260508193137 | 65 | 75 | 6.0 | 5.0 | 0.00 | 0.02 | 0.00 | 44 | 1007.7 |
| 20260508192636 | 66 | 75 | 4.0 | 5.0 | 0.00 | 0.02 | 0.00 | 44 | 1007.7 |
| 20260508192136 | 67 | 84 | 2.0 | 5.0 | 0.00 | 0.02 | 0.00 | 44 | 1007.8 |
| 20260508191636 | 67 | 82 | 5.0 | 6.0 | 0.00 | 0.02 | 0.00 | 44 | 1007.8 |
| 20260508191137 | 67 | 71 | 9.0 | 6.0 | 0.00 | 0.02 | 0.00 | 43 | 1007.8 |
| 20260508190636 | 67 | 72 | 8.0 | 7.0 | 0.00 | 0.02 | 0.00 | 43 | 1007.8 |
| 20260508190137 | 67 | 139 | 4.0 | 6.0 | 0.00 | 0.02 | 0.00 | 42 | 1007.9 |
| 20260508185636 | 68 | 60 | 9.0 | 5.0 | 0.00 | 0.02 | 0.00 | 42 | 1008.0 |
| 20260508185136 | 68 | 54 | 5.0 | 5.0 | 0.00 | 0.02 | 0.00 | 41 | 1008.1 |
| 20260508184636 | 67 | 0 | 0.0 | 6.0 | 0.00 | 0.02 | 0.00 | 42 | 1008.1 |
| 20260508184136 | 67 | 46 | 6.0 | 6.0 | 0.00 | 0.02 | 0.00 | 42 | 1008.2 |
| 20260508183636 | 68 | 60 | 5.0 | 6.0 | 0.00 | 0.02 | 0.00 | 41 | 1008.4 |
| 20260508183137 | 68 | 52 | 7.0 | 5.0 | 0.00 | 0.02 | 0.00 | 40 | 1008.4 |
| 20260508182636 | 68 | 86 | 3.0 | 5.0 | 0.00 | 0.02 | 0.00 | 38 | 1008.5 |
| 20260508182137 | 69 | 136 | 2.0 | 6.0 | 0.00 | 0.02 | 0.00 | 37 | 1008.5 |
| 20260508181636 | 69 | 69 | 7.0 | 6.0 | 0.00 | 0.02 | 0.00 | 36 | 1008.5 |
| 20260508181136 | 69 | 53 | 7.0 | 5.0 | 0.00 | 0.02 | 0.00 | 34 | 1008.5 |
| 20260508180636 | 69 | 65 | 4.0 | 6.0 | 0.00 | 0.02 | 0.00 | 33 | 1008.6 |
| 20260508180136 | 71 | 68 | 6.0 | 5.0 | 0.00 | 0.02 | 0.00 | 33 | 1008.8 |
| 20260508175636 | 71 | 89 | 5.0 | 6.0 | 0.00 | 0.02 | 0.00 | 34 | 1008.9 |
| 20260508175136 | 71 | 53 | 4.0 | 5.0 | 0.00 | 0.02 | 0.00 | 34 | 1008.9 |
| 20260508174636 | 72 | 95 | 5.0 | 4.0 | 0.00 | 0.02 | 0.00 | 34 | 1009.2 |
| 20260508174136 | 72 | 70 | 7.0 | 5.0 | 0.00 | 0.02 | 0.00 | 33 | 1009.1 |
| 20260508173636 | 71 | 109 | 2.0 | 5.0 | 0.00 | 0.02 | 0.00 | 34 | 1009.3 |
| 20260508173136 | 71 | 83 | 6.0 | 5.0 | 0.00 | 0.02 | 0.00 | 33 | 1009.3 |
| 20260508172636 | 71 | 79 | 5.0 | 5.0 | 0.00 | 0.02 | 0.00 | 35 | 1009.5 |
| 20260508172138 | 71 | 93 | 4.0 | 5.0 | 0.00 | 0.02 | 0.00 | 36 | 1009.5 |
| 20260508171637 | 70 | 91 | 2.0 | 4.0 | 0.00 | 0.02 | 0.00 | 36 | 1009.6 |
| 20260508171137 | 69 | 70 | 5.0 | 4.0 | 0.00 | 0.02 | 0.00 | 37 | 1009.6 |
| 20260508170637 | 68 | 271 | 4.0 | 4.0 | 0.00 | 0.02 | 0.00 | 39 | 1009.8 |
| 20260508170137 | 68 | 19 | 4.0 | 3.0 | 0.00 | 0.02 | 0.00 | 38 | 1009.8 |
| 20260508165637 | 68 | 49 | 3.0 | 4.0 | 0.00 | 0.02 | 0.00 | 40 | 1009.9 |
| 20260508165138 | 67 | 97 | 2.0 | 4.0 | 0.00 | 0.02 | 0.00 | 41 | 1009.9 |
| 20260508164637 | 66 | 67 | 4.0 | 4.0 | 0.00 | 0.02 | 0.00 | 42 | 1009.9 |
| 20260508164137 | 67 | 65 | 4.0 | 4.0 | 0.00 | 0.02 | 0.00 | 40 | 1010.0 |
| 20260508163637 | 67 | 81 | 2.0 | 4.0 | 0.00 | 0.02 | 0.00 | 40 | 1010.1 |
| 20260508163137 | 69 | 54 | 6.0 | 4.0 | 0.00 | 0.02 | 0.00 | 39 | 1010.3 |
| 20260508162637 | 70 | 75 | 4.0 | 3.0 | 0.00 | 0.02 | 0.00 | 40 | 1010.2 |
| 20260508162137 | 69 | 115 | 1.0 | 3.0 | 0.00 | 0.02 | 0.00 | 42 | 1010.3 |
| 20260508161637 | 68 | 53 | 2.0 | 2.0 | 0.00 | 0.02 | 0.00 | 45 | 1010.2 |
| 20260508161137 | 67 | 113 | 2.0 | 2.0 | 0.00 | 0.02 | 0.00 | 42 | 1010.2 |
| 20260508160637 | 68 | 80 | 2.0 | 2.0 | 0.00 | 0.02 | 0.00 | 41 | 1010.2 |
| 20260508160137 | 67 | 192 | 5.0 | 3.0 | 0.00 | 0.02 | 0.00 | 41 | 1010.3 |
| 20260508155638 | 67 | 0 | 0.0 | 3.0 | 0.00 | 0.02 | 0.00 | 41 | 1010.3 |
| 20260508155137 | 67 | 216 | 1.0 | 3.0 | 0.00 | 0.02 | 0.00 | 42 | 1010.4 |
| 20260508154637 | 66 | 218 | 5.0 | 3.0 | 0.00 | 0.02 | 0.00 | 41 | 1010.5 |
| 20260508154138 | 66 | 199 | 3.0 | 3.0 | 0.00 | 0.02 | 0.00 | 41 | 1010.5 |
| 20260508153637 | 66 | 182 | 4.0 | 2.0 | 0.00 | 0.02 | 0.00 | 45 | 1010.5 |
| 20260508153137 | 65 | 195 | 4.0 | 2.0 | 0.00 | 0.02 | 0.00 | 45 | 1010.7 |
| 20260508152637 | 64 | 238 | 3.0 | 2.0 | 0.00 | 0.02 | 0.00 | 47 | 1010.5 |
| 20260508152137 | 64 | 70 | 2.0 | 2.0 | 0.00 | 0.02 | 0.00 | 46 | 1010.6 |
| 20260508151637 | 64 | 0 | 0.0 | 2.0 | 0.00 | 0.02 | 0.00 | 52 | 1010.6 |
| 20260508151137 | 63 | 203 | 3.0 | 2.0 | 0.00 | 0.02 | 0.00 | 52 | 1010.6 |
| 20260508150637 | 63 | 206 | 1.0 | 2.0 | 0.00 | 0.02 | 0.00 | 54 | 1010.7 |
| 20260508150137 | 63 | 217 | 2.0 | 1.0 | 0.00 | 0.02 | 0.00 | 58 | 1010.7 |
| 20260508145637 | 62 | 0 | 0.0 | 1.0 | 0.00 | 0.02 | 0.00 | 60 | 1010.8 |
| 20260508145137 | 61 | 208 | 3.0 | 2.0 | 0.00 | 0.02 | 0.00 | 61 | 1010.7 |
| 20260508144637 | 61 | 164 | 1.0 | 1.0 | 0.00 | 0.02 | 0.00 | 63 | 1010.7 |
| 20260508144137 | 60 | 233 | 1.0 | 1.0 | 0.00 | 0.02 | 0.00 | 66 | 1010.8 |
| 20260508143637 | 59 | 250 | 1.0 | 1.0 | 0.00 | 0.02 | 0.00 | 66 | 1010.9 |
| 20260508143137 | 58 | 178 | 2.0 | 1.0 | 0.00 | 0.02 | 0.00 | 67 | 1010.9 |
| 20260508142637 | 58 | 51 | 2.0 | 1.0 | 0.00 | 0.02 | 0.00 | 68 | 1010.9 |
| 20260508142137 | 57 | 0 | 0.0 | 0.0 | 0.00 | 0.02 | 0.00 | 70 | 1010.8 |
| 20260508141637 | 57 | 179 | 2.0 | 1.0 | 0.00 | 0.02 | 0.00 | 72 | 1011.0 |
| 20260508141138 | 56 | 0 | 0.0 | 1.0 | 0.00 | 0.02 | 0.00 | 75 | 1011.0 |
| 20260508140637 | 56 | 187 | 3.0 | 1.0 | 0.00 | 0.02 | 0.00 | 77 | 1010.9 |
| 20260508140137 | 55 | 0 | 0.0 | 1.0 | 0.00 | 0.02 | 0.00 | 81 | 1010.9 |
| 20260508135637 | 54 | 79 | 1.0 | 2.0 | 0.00 | 0.02 | 0.00 | 82 | 1010.7 |